Time,TemperatureF,DewpointF,PressureIn,WindDirection,WindDirectionDegrees,WindSpeedMPH,WindSpeedGustMPH,Humidity,HourlyPrecipIn,Conditions,Clouds,dailyrainin,SoftwareType,DateUTC
2013-06-16 00:01:00,68.8,64.8,29.87,South,180,0.0,0.0,87,0.00,,,0.25,Wunderground v.1.15,2013-06-16 05:01:00,
2013-06-16 00:06:00,68.6,64.6,29.87,South,175,0.0,4.0,87,0.00,,,0.25,Wunderground v.1.15,2013-06-16 05:06:00,
2013-06-16 00:11:00,68.4,64.4,29.87,South,187,0.0,0.0,87,0.00,,,0.00,Wunderground v.1.15,2013-06-16 05:11:00,
2013-06-16 00:16:00,68.3,64.6,29.86,South,180,0.0,0.0,88,0.00,,,0.00,Wunderground v.1.15,2013-06-16 05:16:00,
2013-06-16 00:21:00,68.1,64.4,29.86,SSW,198,0.0,0.0,88,0.00,,,0.00,Wunderground v.1.15,2013-06-16 05:21:00,
2013-06-16 00:26:00,68.0,64.3,29.86,East,100,0.0,0.0,88,0.00,,,0.00,Wunderground v.1.15,2013-06-16 05:26:00,
2013-06-16 00:31:00,68.0,64.3,29.86,WNW,290,0.0,0.0,88,0.00,,,0.00,Wunderground v.1.15,2013-06-16 05:31:00,
2013-06-16 00:36:00,68.0,64.3,29.86,West,271,0.0,0.0,88,0.00,,,0.00,Wunderground v.1.15,2013-06-16 05:36:00,
2013-06-16 00:41:00,67.9,64.5,29.85,WNW,282,2.0,5.0,89,0.00,,,0.00,Wunderground v.1.15,2013-06-16 05:41:00,
2013-06-16 00:46:00,68.0,64.6,29.85,West,275,1.0,8.0,89,0.00,,,0.00,Wunderground v.1.15,2013-06-16 05:46:00,
2013-06-16 00:51:00,68.0,64.6,29.85,West,274,6.0,6.0,89,0.00,,,0.00,Wunderground v.1.15,2013-06-16 05:51:00,
2013-06-16 00:56:00,68.0,64.6,29.86,West,267,8.0,9.0,89,0.00,,,0.00,Wunderground v.1.15,2013-06-16 05:56:00,
2013-06-16 01:01:00,68.0,64.6,29.85,West,265,3.0,7.0,89,0.00,,,0.00,Wunderground v.1.15,2013-06-16 06:01:00,
2013-06-16 01:06:00,68.0,64.3,29.86,West,263,3.0,7.0,88,0.00,,,0.00,Wunderground v.1.15,2013-06-16 06:06:00,
2013-06-16 01:11:00,68.0,64.6,29.86,West,263,1.0,4.0,89,0.00,,,0.00,Wunderground v.1.15,2013-06-16 06:11:00,
2013-06-16 01:16:00,67.9,64.5,29.85,West,261,0.0,5.0,89,0.00,,,0.00,Wunderground v.1.15,2013-06-16 06:16:00,
2013-06-16 01:21:00,67.8,64.4,29.85,West,261,1.0,2.0,89,0.00,,,0.00,Wunderground v.1.15,2013-06-16 06:21:00,
2013-06-16 01:26:00,67.6,64.2,29.85,West,261,0.0,4.0,89,0.00,,,0.00,Wunderground v.1.15,2013-06-16 06:26:00,
2013-06-16 01:31:00,67.4,64.0,29.85,West,261,0.0,3.0,89,0.00,,,0.00,Wunderground v.1.15,2013-06-16 06:31:00,
2013-06-16 01:36:00,67.4,64.0,29.85,West,261,0.0,3.0,89,0.00,,,0.00,Wunderground v.1.15,2013-06-16 06:36:00,
2013-06-16 01:41:00,67.2,63.8,29.84,West,261,0.0,0.0,89,0.00,,,0.00,Wunderground v.1.15,2013-06-16 06:41:00,
2013-06-16 01:46:00,67.0,63.6,29.84,West,261,0.0,0.0,89,0.00,,,0.00,Wunderground v.1.15,2013-06-16 06:46:00,
2013-06-16 01:51:00,66.8,63.8,29.85,West,261,1.0,2.0,90,0.00,,,0.00,Wunderground v.1.15,2013-06-16 06:51:00,
2013-06-16 01:56:00,66.7,63.7,29.85,West,261,1.0,3.0,90,0.00,,,0.00,Wunderground v.1.15,2013-06-16 06:56:00,
2013-06-16 02:01:00,66.6,63.6,29.85,West,261,0.0,0.0,90,0.00,,,0.00,Wunderground v.1.15,2013-06-16 07:01:00,
2013-06-16 02:06:00,66.5,63.5,29.85,West,261,0.0,2.0,90,0.00,,,0.00,Wunderground v.1.15,2013-06-16 07:06:00,
2013-06-16 02:11:00,66.4,63.7,29.85,West,261,0.0,1.0,91,0.00,,,0.00,Wunderground v.1.15,2013-06-16 07:11:00,
2013-06-16 02:16:00,66.3,63.6,29.85,West,261,0.0,3.0,91,0.00,,,0.00,Wunderground v.1.15,2013-06-16 07:16:00,
2013-06-16 02:21:00,66.2,63.5,29.85,West,261,2.0,3.0,91,0.00,,,0.00,Wunderground v.1.15,2013-06-16 07:21:00,
2013-06-16 02:26:00,66.3,63.6,29.85,West,261,0.0,4.0,91,0.00,,,0.00,Wunderground v.1.15,2013-06-16 07:26:00,
2013-06-16 02:31:00,66.3,63.6,29.84,West,261,0.0,5.0,91,0.00,,,0.00,Wunderground v.1.15,2013-06-16 07:31:00,
2013-06-16 02:36:00,66.2,63.5,29.84,West,261,0.0,5.0,91,0.00,,,0.00,Wunderground v.1.15,2013-06-16 07:36:00,
2013-06-16 02:41:00,66.2,63.8,29.85,West,261,3.0,5.0,92,0.00,,,0.00,Wunderground v.1.15,2013-06-16 07:41:00,
2013-06-16 02:46:00,66.3,63.9,29.84,West,264,2.0,6.0,92,0.00,,,0.00,Wunderground v.1.15,2013-06-16 07:46:00,
2013-06-16 02:51:00,66.4,64.0,29.84,West,261,7.0,7.0,92,0.00,,,0.00,Wunderground v.1.15,2013-06-16 07:51:00,
2013-06-16 02:56:00,66.6,64.2,29.84,West,259,4.0,9.0,92,0.00,,,0.00,Wunderground v.1.15,2013-06-16 07:56:00,
2013-06-16 03:01:00,66.8,64.4,29.84,West,273,9.0,10.0,92,0.00,,,0.00,Wunderground v.1.15,2013-06-16 08:01:00,
2013-06-16 03:06:00,66.9,64.5,29.84,WSW,258,5.0,13.0,92,0.00,,,0.00,Wunderground v.1.15,2013-06-16 08:06:00,
2013-06-16 03:11:00,66.9,64.5,29.83,West,263,5.0,10.0,92,0.00,,,0.00,Wunderground v.1.15,2013-06-16 08:11:00,
2013-06-16 03:16:00,66.9,64.5,29.84,West,260,3.0,11.0,92,0.00,,,0.00,Wunderground v.1.15,2013-06-16 08:16:00,
2013-06-16 03:21:00,66.9,64.5,29.85,WSW,252,6.0,10.0,92,0.00,,,0.00,Wunderground v.1.15,2013-06-16 08:21:00,
2013-06-16 03:26:00,66.9,64.5,29.85,West,265,4.0,10.0,92,0.00,,,0.00,Wunderground v.1.15,2013-06-16 08:26:00,
2013-06-16 03:31:00,66.9,64.5,29.85,West,274,4.0,7.0,92,0.00,,,0.00,Wunderground v.1.15,2013-06-16 08:31:00,
2013-06-16 03:36:00,66.8,64.4,29.85,West,265,1.0,7.0,92,0.00,,,0.00,Wunderground v.1.15,2013-06-16 08:36:00,
2013-06-16 03:41:00,66.8,64.4,29.85,West,267,5.0,6.0,92,0.00,,,0.00,Wunderground v.1.15,2013-06-16 08:41:00,
2013-06-16 03:46:00,66.8,64.4,29.85,West,274,5.0,11.0,92,0.00,,,0.00,Wunderground v.1.15,2013-06-16 08:46:00,
2013-06-16 03:51:00,66.7,64.3,29.85,West,273,4.0,4.0,92,0.00,,,0.00,Wunderground v.1.15,2013-06-16 08:51:00,
2013-06-16 03:56:00,66.7,64.3,29.85,West,275,1.0,6.0,92,0.00,,,0.00,Wunderground v.1.15,2013-06-16 08:56:00,
2013-06-16 04:01:00,66.7,64.3,29.85,West,276,2.0,4.0,92,0.00,,,0.00,Wunderground v.1.15,2013-06-16 09:01:00,
2013-06-16 04:06:00,66.7,64.3,29.85,West,280,5.0,7.0,92,0.00,,,0.00,Wunderground v.1.15,2013-06-16 09:06:00,
2013-06-16 04:11:00,66.7,64.3,29.86,WNW,284,6.0,8.0,92,0.00,,,0.00,Wunderground v.1.15,2013-06-16 09:11:00,
2013-06-16 04:16:00,66.7,64.3,29.86,WNW,284,2.0,8.0,92,0.00,,,0.00,Wunderground v.1.15,2013-06-16 09:16:00,
2013-06-16 04:21:00,66.7,64.3,29.86,WNW,283,4.0,6.0,92,0.00,,,0.00,Wunderground v.1.15,2013-06-16 09:21:00,
2013-06-16 04:26:00,66.7,64.3,29.86,WNW,282,1.0,7.0,92,0.00,,,0.00,Wunderground v.1.15,2013-06-16 09:26:00,
2013-06-16 04:31:00,66.7,64.6,29.86,WNW,282,5.0,6.0,93,0.00,,,0.00,Wunderground v.1.15,2013-06-16 09:31:00,
2013-06-16 04:36:00,66.6,64.5,29.86,WNW,282,2.0,6.0,93,0.00,,,0.00,Wunderground v.1.15,2013-06-16 09:36:00,
2013-06-16 04:41:00,66.5,64.4,29.86,WNW,282,2.0,4.0,93,0.00,,,0.00,Wunderground v.1.15,2013-06-16 09:41:00,
2013-06-16 04:46:00,66.5,64.4,29.86,WNW,282,2.0,5.0,93,0.00,,,0.00,Wunderground v.1.15,2013-06-16 09:46:00,
2013-06-16 04:51:00,66.4,64.3,29.86,WNW,282,4.0,5.0,93,0.00,,,0.00,Wunderground v.1.15,2013-06-16 09:51:00,
2013-06-16 04:56:00,66.4,64.3,29.86,WNW,282,4.0,7.0,93,0.00,,,0.00,Wunderground v.1.15,2013-06-16 09:56:00,
2013-06-16 05:01:00,66.4,64.3,29.87,WNW,284,6.0,7.0,93,0.00,,,0.00,Wunderground v.1.15,2013-06-16 10:01:00,
2013-06-16 05:06:00,66.3,64.2,29.86,WNW,284,3.0,7.0,93,0.00,,,0.00,Wunderground v.1.15,2013-06-16 10:06:00,
2013-06-16 05:11:00,66.3,64.2,29.86,WNW,284,1.0,4.0,93,0.00,,,0.00,Wunderground v.1.15,2013-06-16 10:11:00,
2013-06-16 05:16:00,66.2,64.1,29.86,WNW,284,3.0,5.0,93,0.00,,,0.00,Wunderground v.1.15,2013-06-16 10:16:00,
2013-06-16 05:21:00,66.2,64.1,29.86,WNW,284,1.0,4.0,93,0.00,,,0.00,Wunderground v.1.15,2013-06-16 10:21:00,
2013-06-16 05:26:00,66.2,64.1,29.86,WNW,284,2.0,6.0,93,0.00,,,0.00,Wunderground v.1.15,2013-06-16 10:26:00,
2013-06-16 05:31:00,66.1,64.0,29.86,WNW,284,3.0,5.0,93,0.00,,,0.00,Wunderground v.1.15,2013-06-16 10:31:00,
2013-06-16 05:36:00,66.1,64.0,29.86,WNW,284,2.0,7.0,93,0.00,,,0.00,Wunderground v.1.15,2013-06-16 10:36:00,
2013-06-16 05:41:00,66.0,63.9,29.86,WNW,284,4.0,6.0,93,0.00,,,0.00,Wunderground v.1.15,2013-06-16 10:41:00,
2013-06-16 05:46:00,65.9,63.8,29.86,WNW,284,2.0,6.0,93,0.00,,,0.00,Wunderground v.1.15,2013-06-16 10:46:00,
2013-06-16 05:51:00,65.9,63.8,29.86,WNW,284,4.0,4.0,93,0.00,,,0.00,Wunderground v.1.15,2013-06-16 10:51:00,
2013-06-16 05:56:00,65.8,63.7,29.86,WNW,284,0.0,4.0,93,0.00,,,0.00,Wunderground v.1.15,2013-06-16 10:56:00,
2013-06-16 06:01:00,65.7,63.6,29.86,WNW,284,0.0,1.0,93,0.00,,,0.00,Wunderground v.1.15,2013-06-16 11:01:00,
2013-06-16 06:06:00,65.7,63.6,29.86,WNW,284,0.0,1.0,93,0.00,,,0.00,Wunderground v.1.15,2013-06-16 11:06:00,
2013-06-16 06:11:00,65.7,63.6,29.86,WNW,284,0.0,0.0,93,0.00,,,0.00,Wunderground v.1.15,2013-06-16 11:11:00,
2013-06-16 06:16:00,65.9,64.1,29.87,WNW,284,0.0,3.0,94,0.00,,,0.00,Wunderground v.1.15,2013-06-16 11:16:00,
2013-06-16 06:21:00,66.1,64.3,29.87,WNW,284,2.0,3.0,94,0.00,,,0.00,Wunderground v.1.15,2013-06-16 11:21:00,
2013-06-16 06:26:00,66.3,64.5,29.87,WNW,284,0.0,3.0,94,0.00,,,0.00,Wunderground v.1.15,2013-06-16 11:26:00,
2013-06-16 06:31:00,66.4,64.6,29.86,WNW,284,3.0,3.0,94,0.00,,,0.00,Wunderground v.1.15,2013-06-16 11:31:00,
2013-06-16 06:36:00,66.6,64.8,29.87,WNW,284,2.0,3.0,94,0.00,,,0.00,Wunderground v.1.15,2013-06-16 11:36:00,
2013-06-16 06:41:00,66.7,64.9,29.87,WNW,284,1.0,3.0,94,0.00,,,0.00,Wunderground v.1.15,2013-06-16 11:41:00,
2013-06-16 06:46:00,66.8,65.0,29.87,WNW,284,3.0,5.0,94,0.00,,,0.00,Wunderground v.1.15,2013-06-16 11:46:00,
2013-06-16 06:51:00,67.0,65.2,29.87,WNW,284,3.0,5.0,94,0.00,,,0.00,Wunderground v.1.15,2013-06-16 11:51:00,
2013-06-16 06:56:00,67.3,65.5,29.87,WNW,284,4.0,5.0,94,0.00,,,0.00,Wunderground v.1.15,2013-06-16 11:56:00,
2013-06-16 07:01:00,67.4,65.6,29.87,WNW,284,4.0,5.0,94,0.00,,,0.00,Wunderground v.1.15,2013-06-16 12:01:00,
2013-06-16 07:06:00,67.5,65.4,29.87,WNW,286,7.0,7.0,93,0.00,,,0.00,Wunderground v.1.15,2013-06-16 12:06:00,
2013-06-16 07:11:00,67.6,65.5,29.87,WNW,288,5.0,7.0,93,0.00,,,0.00,Wunderground v.1.15,2013-06-16 12:11:00,
2013-06-16 07:16:00,67.8,65.7,29.87,WNW,288,4.0,7.0,93,0.00,,,0.00,Wunderground v.1.15,2013-06-16 12:16:00,
2013-06-16 07:21:00,68.0,65.9,29.87,WNW,288,5.0,8.0,93,0.00,,,0.00,Wunderground v.1.15,2013-06-16 12:21:00,
2013-06-16 07:26:00,68.2,66.1,29.88,WNW,288,4.0,8.0,93,0.00,,,0.00,Wunderground v.1.15,2013-06-16 12:26:00,
2013-06-16 07:31:00,68.5,66.4,29.88,WNW,288,0.0,4.0,93,0.00,,,0.00,Wunderground v.1.15,2013-06-16 12:31:00,
2013-06-16 07:36:00,68.7,66.6,29.88,WNW,294,0.0,4.0,93,0.00,,,0.00,Wunderground v.1.15,2013-06-16 12:36:00,
2013-06-16 07:41:00,69.0,66.6,29.88,WNW,298,2.0,5.0,92,0.00,,,0.00,Wunderground v.1.15,2013-06-16 12:41:00,
2013-06-16 07:46:00,69.2,66.8,29.88,NW,306,4.0,5.0,92,0.00,,,0.00,Wunderground v.1.15,2013-06-16 12:46:00,
2013-06-16 07:51:00,69.3,66.6,29.88,NW,307,0.0,5.0,91,0.00,,,0.00,Wunderground v.1.15,2013-06-16 12:51:00,
2013-06-16 07:56:00,69.6,66.5,29.88,NW,314,5.0,7.0,90,0.00,,,0.00,Wunderground v.1.15,2013-06-16 12:56:00,
2013-06-16 08:01:00,69.7,66.6,29.88,NNW,328,5.0,6.0,90,0.00,,,0.00,Wunderground v.1.15,2013-06-16 13:01:00,
2013-06-16 08:06:00,69.9,66.8,29.88,NNW,327,3.0,7.0,90,0.00,,,0.00,Wunderground v.1.15,2013-06-16 13:06:00,
2013-06-16 08:11:00,70.1,67.0,29.88,NNW,327,0.0,3.0,90,0.00,,,0.00,Wunderground v.1.15,2013-06-16 13:11:00,
2013-06-16 08:16:00,70.2,66.8,29.88,NNW,327,0.0,6.0,89,0.00,,,0.00,Wunderground v.1.15,2013-06-16 13:16:00,
2013-06-16 08:21:00,70.6,67.2,29.89,NNW,327,4.0,5.0,89,0.00,,,0.00,Wunderground v.1.15,2013-06-16 13:21:00,
2013-06-16 08:26:00,70.8,66.7,29.89,NNW,329,3.0,7.0,87,0.00,,,0.00,Wunderground v.1.15,2013-06-16 13:26:00,
2013-06-16 08:31:00,70.8,66.7,29.89,NNW,329,0.0,4.0,87,0.00,,,0.00,Wunderground v.1.15,2013-06-16 13:31:00,
2013-06-16 08:36:00,71.0,66.9,29.89,NNW,329,0.0,4.0,87,0.00,,,0.00,Wunderground v.1.15,2013-06-16 13:36:00,
2013-06-16 08:41:00,71.3,66.9,29.89,NNW,329,0.0,0.0,86,0.00,,,0.00,Wunderground v.1.15,2013-06-16 13:41:00,
2013-06-16 08:45:00,71.3,66.6,29.88,NNW,336,3.0,6.0,85,0.00,,,0.00,Wunderground v.1.15,2013-06-16 13:45:00,
2013-06-16 08:50:00,71.6,66.8,29.89,NNW,342,4.0,11.0,85,0.00,,,0.00,Wunderground v.1.15,2013-06-16 13:50:00,
2013-06-16 08:55:00,71.8,66.7,29.89,NNW,342,4.0,11.0,84,0.00,,,0.00,Wunderground v.1.15,2013-06-16 13:55:00,
2013-06-16 09:00:00,72.1,67.0,29.89,WNW,294,5.0,5.0,84,0.00,,,0.00,Wunderground v.1.15,2013-06-16 14:00:00,
2013-06-16 09:05:00,72.3,66.8,29.88,WNW,296,0.0,6.0,83,0.00,,,0.00,Wunderground v.1.15,2013-06-16 14:05:00,
2013-06-16 09:10:00,72.7,67.2,29.88,WNW,296,3.0,4.0,83,0.00,,,0.00,Wunderground v.1.15,2013-06-16 14:10:00,
2013-06-16 09:15:00,73.0,67.2,29.88,WNW,296,0.0,4.0,82,0.00,,,0.00,Wunderground v.1.15,2013-06-16 14:15:00,
2013-06-16 09:20:00,73.3,67.5,29.88,WNW,296,0.0,1.0,82,0.00,,,0.00,Wunderground v.1.15,2013-06-16 14:20:00,
2013-06-16 09:25:00,73.9,67.7,29.88,WNW,296,0.0,1.0,81,0.00,,,0.00,Wunderground v.1.15,2013-06-16 14:25:00,
2013-06-16 09:30:00,74.5,67.9,29.88,WNW,296,0.0,0.0,80,0.00,,,0.00,Wunderground v.1.15,2013-06-16 14:30:00,
2013-06-16 09:35:00,75.0,68.0,29.88,WNW,296,0.0,3.0,79,0.00,,,0.00,Wunderground v.1.15,2013-06-16 14:35:00,
2013-06-16 09:40:00,75.3,67.6,29.89,WNW,296,0.0,0.0,77,0.00,,,0.00,Wunderground v.1.15,2013-06-16 14:40:00,
2013-06-16 09:45:00,75.4,66.9,29.88,WNW,296,2.0,5.0,75,0.00,,,0.00,Wunderground v.1.15,2013-06-16 14:45:00,
2013-06-16 09:50:00,75.6,66.7,29.88,WNW,296,0.0,2.0,74,0.00,,,0.00,Wunderground v.1.15,2013-06-16 14:50:00,
2013-06-16 09:55:00,75.8,66.1,29.88,WNW,298,0.0,4.0,72,0.00,,,0.00,Wunderground v.1.15,2013-06-16 14:55:00,
2013-06-16 10:00:00,76.1,66.8,29.88,WNW,298,0.0,1.0,73,0.00,,,0.00,Wunderground v.1.15,2013-06-16 15:00:00,
2013-06-16 10:05:00,76.3,66.2,29.88,North,355,0.0,5.0,71,0.00,,,0.00,Wunderground v.1.15,2013-06-16 15:05:00,
2013-06-16 10:10:00,76.5,66.0,29.88,North,355,0.0,1.0,70,0.00,,,0.00,Wunderground v.1.15,2013-06-16 15:10:00,
2013-06-16 10:15:00,76.8,66.3,29.88,North,355,0.0,1.0,70,0.00,,,0.00,Wunderground v.1.15,2013-06-16 15:15:00,
2013-06-16 10:20:00,77.2,66.7,29.88,North,355,0.0,0.0,70,0.00,,,0.00,Wunderground v.1.15,2013-06-16 15:20:00,
2013-06-16 10:25:00,77.6,66.6,29.88,North,355,0.0,0.0,69,0.00,,,0.00,Wunderground v.1.15,2013-06-16 15:25:00,
2013-06-16 10:30:00,77.8,66.0,29.88,North,355,0.0,0.0,67,0.00,,,0.00,Wunderground v.1.15,2013-06-16 15:30:00,
2013-06-16 10:35:00,78.4,65.2,29.88,North,355,0.0,5.0,64,0.00,,,0.00,Wunderground v.1.15,2013-06-16 15:35:00,
2013-06-16 10:40:00,78.7,65.0,29.89,North,355,0.0,0.0,63,0.00,,,0.00,Wunderground v.1.15,2013-06-16 15:40:00,
2013-06-16 10:45:00,79.0,64.9,29.89,North,355,0.0,0.0,62,0.00,,,0.00,Wunderground v.1.15,2013-06-16 15:45:00,
2013-06-16 10:50:00,79.2,64.6,29.89,North,355,0.0,0.0,61,0.00,,,0.00,Wunderground v.1.15,2013-06-16 15:50:00,
2013-06-16 10:55:00,79.4,64.8,29.88,North,355,0.0,4.0,61,0.00,,,0.00,Wunderground v.1.15,2013-06-16 15:55:00,
2013-06-16 11:00:00,79.7,64.1,29.89,North,355,4.0,4.0,59,0.00,,,0.00,Wunderground v.1.15,2013-06-16 16:00:00,
2013-06-16 11:05:00,79.6,63.0,29.89,NNW,342,0.0,7.0,57,0.00,,,0.00,Wunderground v.1.15,2013-06-16 16:05:00,
2013-06-16 11:10:00,79.5,63.4,29.89,NNW,342,1.0,5.0,58,0.00,,,0.00,Wunderground v.1.15,2013-06-16 16:10:00,
2013-06-16 11:15:00,79.7,63.1,29.88,NNW,344,0.0,7.0,57,0.00,,,0.00,Wunderground v.1.15,2013-06-16 16:15:00,
2013-06-16 11:20:00,79.9,64.3,29.89,NNW,345,5.0,5.0,59,0.00,,,0.00,Wunderground v.1.15,2013-06-16 16:20:00,
2013-06-16 11:25:00,80.2,63.6,29.89,NNW,347,0.0,6.0,57,0.00,,,0.00,Wunderground v.1.15,2013-06-16 16:25:00,
2013-06-16 11:30:00,80.6,61.3,29.88,WNW,302,9.0,12.0,52,0.00,,,0.00,Wunderground v.1.15,2013-06-16 16:30:00,
2013-06-16 11:35:00,80.7,61.4,29.88,NW,309,0.0,12.0,52,0.00,,,0.00,Wunderground v.1.15,2013-06-16 16:35:00,
2013-06-16 11:40:00,81.0,60.0,29.88,NNW,341,6.0,9.0,49,0.00,,,0.00,Wunderground v.1.15,2013-06-16 16:40:00,
2013-06-16 11:45:00,81.2,58.5,29.88,NNW,341,0.0,9.0,46,0.00,,,0.00,Wunderground v.1.15,2013-06-16 16:45:00,
2013-06-16 11:50:00,81.5,58.1,29.88,NNW,342,0.0,5.0,45,0.00,,,0.00,Wunderground v.1.15,2013-06-16 16:50:00,
2013-06-16 11:55:00,81.6,60.0,29.88,NNW,342,3.0,7.0,48,0.00,,,0.00,Wunderground v.1.15,2013-06-16 16:55:00,
2013-06-16 12:00:00,81.7,58.3,29.88,NNW,338,5.0,5.0,45,0.00,,,0.00,Wunderground v.1.15,2013-06-16 17:00:00,
2013-06-16 12:05:00,81.8,57.8,29.88,NNW,338,0.0,6.0,44,0.00,,,0.00,Wunderground v.1.15,2013-06-16 17:05:00,
2013-06-16 12:10:00,81.9,56.6,29.88,NNW,339,1.0,4.0,42,0.00,,,0.00,Wunderground v.1.15,2013-06-16 17:10:00,
2013-06-16 12:15:00,82.1,59.3,29.89,NNW,343,4.0,7.0,46,0.00,,,0.00,Wunderground v.1.15,2013-06-16 17:15:00,
2013-06-16 12:20:00,82.1,56.7,29.89,NNW,343,5.0,7.0,42,0.00,,,0.00,Wunderground v.1.15,2013-06-16 17:20:00,
2013-06-16 12:25:00,82.4,58.3,29.89,NNW,331,6.0,14.0,44,0.00,,,0.00,Wunderground v.1.15,2013-06-16 17:25:00,
2013-06-16 12:30:00,82.6,57.2,29.89,NNW,331,6.0,6.0,42,0.00,,,0.00,Wunderground v.1.15,2013-06-16 17:30:00,
2013-06-16 12:35:00,82.7,57.3,29.88,North,349,0.0,10.0,42,0.00,,,0.00,Wunderground v.1.15,2013-06-16 17:35:00,
2013-06-16 12:40:00,82.8,56.7,29.89,North,350,0.0,3.0,41,0.00,,,0.00,Wunderground v.1.15,2013-06-16 17:40:00,
2013-06-16 12:45:00,82.9,58.1,29.89,North,350,4.0,6.0,43,0.00,,,0.00,Wunderground v.1.15,2013-06-16 17:45:00,
2013-06-16 12:50:00,82.8,57.4,29.88,North,355,4.0,5.0,42,0.00,,,0.00,Wunderground v.1.15,2013-06-16 17:50:00,
2013-06-16 12:55:00,83.0,57.5,29.88,North,351,5.0,10.0,42,0.00,,,0.00,Wunderground v.1.15,2013-06-16 17:55:00,
2013-06-16 13:00:00,83.1,55.6,29.88,North,351,0.0,4.0,39,0.00,,,0.00,Wunderground v.1.15,2013-06-16 18:00:00,
2013-06-16 13:05:00,83.1,55.6,29.88,NNE,14,0.0,6.0,39,0.00,,,0.00,Wunderground v.1.15,2013-06-16 18:05:00,
2013-06-16 13:10:00,83.4,57.9,29.88,NNE,14,2.0,2.0,42,0.00,,,0.00,Wunderground v.1.15,2013-06-16 18:10:00,
2013-06-16 13:15:00,83.6,55.3,29.88,NNE,12,3.0,10.0,38,0.00,,,0.00,Wunderground v.1.15,2013-06-16 18:15:00,
2013-06-16 13:20:00,83.9,55.6,29.88,NNE,12,2.0,5.0,38,0.00,,,0.00,Wunderground v.1.15,2013-06-16 18:20:00,
2013-06-16 13:25:00,84.1,57.2,29.88,North,360,4.0,10.0,40,0.00,,,0.00,Wunderground v.1.15,2013-06-16 18:25:00,
2013-06-16 13:30:00,84.4,56.7,29.88,NW,309,6.0,9.0,39,0.00,,,0.00,Wunderground v.1.15,2013-06-16 18:30:00,
2013-06-16 13:35:00,84.4,56.7,29.88,NW,323,9.0,12.0,39,0.00,,,0.00,Wunderground v.1.15,2013-06-16 18:35:00,
2013-06-16 13:40:00,84.5,56.1,29.88,NW,313,0.0,6.0,38,0.00,,,0.00,Wunderground v.1.15,2013-06-16 18:40:00,
2013-06-16 13:45:00,84.7,56.3,29.87,NW,315,11.0,12.0,38,0.00,,,0.00,Wunderground v.1.15,2013-06-16 18:45:00,
2013-06-16 13:50:00,84.8,54.9,29.87,WNW,297,11.0,12.0,36,0.00,,,0.00,Wunderground v.1.15,2013-06-16 18:50:00,
2013-06-16 13:55:00,84.8,53.3,29.87,WNW,288,6.0,14.0,34,0.00,,,0.00,Wunderground v.1.15,2013-06-16 18:55:00,
2013-06-16 14:00:00,85.1,55.1,29.87,NW,309,11.0,13.0,36,0.00,,,0.00,Wunderground v.1.15,2013-06-16 19:00:00,
2013-06-16 14:05:00,85.4,54.6,29.87,NW,324,9.0,17.0,35,0.00,,,0.00,Wunderground v.1.15,2013-06-16 19:05:00,
2013-06-16 14:10:00,85.4,53.0,29.88,NNW,338,4.0,9.0,33,0.00,,,0.00,Wunderground v.1.15,2013-06-16 19:10:00,
2013-06-16 14:15:00,85.4,53.0,29.88,NNW,346,8.0,11.0,33,0.00,,,0.00,Wunderground v.1.15,2013-06-16 19:15:00,
2013-06-16 14:20:00,85.5,52.3,29.88,NW,309,3.0,6.0,32,0.00,,,0.00,Wunderground v.1.15,2013-06-16 19:20:00,
2013-06-16 14:25:00,85.6,54.8,29.87,NW,318,6.0,13.0,35,0.00,,,0.00,Wunderground v.1.15,2013-06-16 19:25:00,
2013-06-16 14:30:00,85.6,52.4,29.87,North,9,5.0,10.0,32,0.00,,,0.00,Wunderground v.1.15,2013-06-16 19:30:00,
2013-06-16 14:35:00,85.6,54.8,29.87,North,350,11.0,11.0,35,0.00,,,0.00,Wunderground v.1.15,2013-06-16 19:35:00,
2013-06-16 14:40:00,85.5,51.4,29.88,NNW,331,8.0,9.0,31,0.00,,,0.00,Wunderground v.1.15,2013-06-16 19:40:00,
2013-06-16 14:45:00,85.6,50.6,29.87,NW,322,3.0,14.0,30,0.00,,,0.00,Wunderground v.1.15,2013-06-16 19:45:00,
2013-06-16 14:50:00,85.6,54.0,29.87,NNW,334,3.0,6.0,34,0.00,,,0.00,Wunderground v.1.15,2013-06-16 19:50:00,
2013-06-16 14:55:00,85.4,52.2,29.87,NNW,327,6.0,11.0,32,0.00,,,0.00,Wunderground v.1.15,2013-06-16 19:55:00,
2013-06-16 15:00:00,85.6,53.2,29.87,NNW,338,4.0,4.0,33,0.00,,,0.00,Wunderground v.1.15,2013-06-16 20:00:00,
2013-06-16 15:05:00,85.7,51.6,29.87,NNW,329,4.0,12.0,31,0.00,,,0.00,Wunderground v.1.15,2013-06-16 20:05:00,
2013-06-16 15:10:00,85.5,51.4,29.87,NNW,331,6.0,9.0,31,0.00,,,0.00,Wunderground v.1.15,2013-06-16 20:10:00,
2013-06-16 15:15:00,85.5,53.9,29.87,NW,318,10.0,14.0,34,0.00,,,0.00,Wunderground v.1.15,2013-06-16 20:15:00,
2013-06-16 15:20:00,85.6,51.5,29.87,NW,317,6.0,7.0,31,0.00,,,0.00,Wunderground v.1.15,2013-06-16 20:20:00,
2013-06-16 15:25:00,85.5,54.7,29.88,NW,317,5.0,10.0,35,0.00,,,0.00,Wunderground v.1.15,2013-06-16 20:25:00,
2013-06-16 15:30:00,85.5,54.7,29.88,WNW,302,12.0,12.0,35,0.00,,,0.00,Wunderground v.1.15,2013-06-16 20:30:00,
2013-06-16 15:35:00,85.6,55.6,29.87,NW,321,4.0,12.0,36,0.00,,,0.00,Wunderground v.1.15,2013-06-16 20:35:00,
2013-06-16 15:40:00,85.5,53.1,29.87,NW,321,3.0,6.0,33,0.00,,,0.00,Wunderground v.1.15,2013-06-16 20:40:00,
2013-06-16 15:45:00,85.6,54.8,29.87,NNW,333,9.0,14.0,35,0.00,,,0.00,Wunderground v.1.15,2013-06-16 20:45:00,
2013-06-16 15:50:00,85.8,56.5,29.87,NNW,347,5.0,10.0,37,0.00,,,0.00,Wunderground v.1.15,2013-06-16 20:50:00,
2013-06-16 15:55:00,85.9,55.1,29.88,NW,306,8.0,15.0,35,0.00,,,0.00,Wunderground v.1.15,2013-06-16 20:55:00,
2013-06-16 16:00:00,85.8,55.8,29.87,NW,323,12.0,12.0,36,0.00,,,0.00,Wunderground v.1.15,2013-06-16 21:00:00,
2013-06-16 16:05:00,86.0,53.5,29.87,NW,325,6.0,12.0,33,0.00,,,0.00,Wunderground v.1.15,2013-06-16 21:05:00,
2013-06-16 16:10:00,86.1,51.0,29.88,NW,305,9.0,9.0,30,0.00,,,0.00,Wunderground v.1.15,2013-06-16 21:10:00,
2013-06-16 16:15:00,86.2,52.9,29.87,NW,314,5.0,11.0,32,0.00,,,0.00,Wunderground v.1.15,2013-06-16 21:15:00,
2013-06-16 16:20:00,86.1,51.9,29.87,NW,315,12.0,12.0,31,0.00,,,0.00,Wunderground v.1.15,2013-06-16 21:20:00,
2013-06-16 16:25:00,85.9,51.8,29.87,WNW,301,10.0,14.0,31,0.00,,,0.00,Wunderground v.1.15,2013-06-16 21:25:00,
2013-06-16 16:30:00,85.7,50.7,29.87,NW,313,6.0,8.0,30,0.00,,,0.00,Wunderground v.1.15,2013-06-16 21:30:00,
2013-06-16 16:35:00,86.0,53.5,29.87,NNW,333,9.0,12.0,33,0.00,,,0.00,Wunderground v.1.15,2013-06-16 21:35:00,
2013-06-16 16:40:00,86.1,54.5,29.87,NNW,333,7.0,8.0,34,0.00,,,0.00,Wunderground v.1.15,2013-06-16 21:40:00,
2013-06-16 16:45:00,85.9,52.6,29.86,NNW,331,2.0,10.0,32,0.00,,,0.00,Wunderground v.1.15,2013-06-16 21:45:00,
2013-06-16 16:50:00,86.0,54.4,29.86,NNW,331,0.0,2.0,34,0.00,,,0.00,Wunderground v.1.15,2013-06-16 21:50:00,
2013-06-16 16:55:00,85.9,51.8,29.86,NNW,340,3.0,14.0,31,0.00,,,0.00,Wunderground v.1.15,2013-06-16 21:55:00,
2013-06-16 17:00:00,85.8,51.7,29.86,NNW,340,5.0,8.0,31,0.00,,,0.00,Wunderground v.1.15,2013-06-16 22:00:00,
2013-06-16 17:05:00,85.7,50.7,29.86,NNW,346,0.0,9.0,30,0.00,,,0.00,Wunderground v.1.15,2013-06-16 22:05:00,
2013-06-16 17:10:00,85.6,54.0,29.86,North,349,6.0,9.0,34,0.00,,,0.00,Wunderground v.1.15,2013-06-16 22:10:00,
2013-06-16 17:15:00,85.7,53.3,29.86,North,350,0.0,9.0,33,0.00,,,0.00,Wunderground v.1.15,2013-06-16 22:15:00,
2013-06-16 17:20:00,85.7,52.4,29.86,NNW,348,5.0,5.0,32,0.00,,,0.00,Wunderground v.1.15,2013-06-16 22:20:00,
2013-06-16 17:25:00,85.7,52.4,29.86,North,355,6.0,13.0,32,0.00,,,0.00,Wunderground v.1.15,2013-06-16 22:25:00,
2013-06-16 17:30:00,85.7,53.3,29.86,North,355,3.0,6.0,33,0.00,,,0.00,Wunderground v.1.15,2013-06-16 22:30:00,
2013-06-16 17:35:00,85.9,50.9,29.86,NW,304,12.0,13.0,30,0.00,,,0.00,Wunderground v.1.15,2013-06-16 22:35:00,
2013-06-16 17:40:00,85.8,49.9,29.86,NW,309,8.0,9.0,29,0.00,,,0.00,Wunderground v.1.15,2013-06-16 22:40:00,
2013-06-16 17:45:00,85.5,49.6,29.86,NW,321,12.0,16.0,29,0.00,,,0.00,Wunderground v.1.15,2013-06-16 22:45:00,
2013-06-16 17:50:00,85.4,49.5,29.86,North,355,10.0,12.0,29,0.00,,,0.00,Wunderground v.1.15,2013-06-16 22:50:00,
2013-06-16 17:55:00,85.5,50.5,29.86,NW,325,10.0,15.0,30,0.00,,,0.00,Wunderground v.1.15,2013-06-16 22:55:00,
2013-06-16 18:00:00,85.4,51.3,29.86,NNW,334,13.0,13.0,31,0.00,,,0.00,Wunderground v.1.15,2013-06-16 23:00:00,
2013-06-16 18:05:00,85.3,50.4,29.86,NW,319,7.0,13.0,30,0.00,,,0.00,Wunderground v.1.15,2013-06-16 23:05:00,
2013-06-16 18:10:00,85.3,51.2,29.85,NNW,334,5.0,8.0,31,0.00,,,0.00,Wunderground v.1.15,2013-06-16 23:10:00,
2013-06-16 18:15:00,85.2,50.3,29.85,NNW,336,4.0,10.0,30,0.00,,,0.00,Wunderground v.1.15,2013-06-16 23:15:00,
2013-06-16 18:20:00,85.1,51.1,29.85,North,349,5.0,7.0,31,0.00,,,0.00,Wunderground v.1.15,2013-06-16 23:20:00,
2013-06-16 18:25:00,85.1,52.8,29.85,NNW,346,4.0,9.0,33,0.00,,,0.00,Wunderground v.1.15,2013-06-16 23:25:00,
2013-06-16 18:30:00,85.1,50.2,29.85,WNW,298,12.0,14.0,30,0.00,,,0.00,Wunderground v.1.15,2013-06-16 23:30:00,
2013-06-16 18:35:00,84.9,50.9,29.85,NW,318,7.0,16.0,31,0.00,,,0.00,Wunderground v.1.15,2013-06-16 23:35:00,
2013-06-16 18:40:00,84.8,50.8,29.85,NW,324,5.0,11.0,31,0.00,,,0.00,Wunderground v.1.15,2013-06-16 23:40:00,
2013-06-16 18:45:00,84.6,51.5,29.85,NW,313,4.0,13.0,32,0.00,,,0.00,Wunderground v.1.15,2013-06-16 23:45:00,
2013-06-16 18:50:00,84.5,52.2,29.86,NW,315,3.0,6.0,33,0.00,,,0.00,Wunderground v.1.15,2013-06-16 23:50:00,
2013-06-16 18:55:00,84.2,51.1,29.86,NW,317,0.0,10.0,32,0.00,,,0.00,Wunderground v.1.15,2013-06-16 23:55:00,
2013-06-16 19:00:00,83.8,50.8,29.86,NW,317,0.0,4.0,32,0.00,,,0.00,Wunderground v.1.15,2013-06-17 00:00:00,
2013-06-16 19:05:00,83.3,51.2,29.86,NW,321,5.0,10.0,33,0.00,,,0.00,Wunderground v.1.15,2013-06-17 00:05:00,
2013-06-16 19:10:00,82.8,52.3,29.86,NW,323,4.0,4.0,35,0.00,,,0.00,Wunderground v.1.15,2013-06-17 00:10:00,
2013-06-16 19:15:00,82.6,51.4,29.86,NW,323,5.0,7.0,34,0.00,,,0.00,Wunderground v.1.15,2013-06-17 00:15:00,
2013-06-16 19:20:00,82.6,51.4,29.86,NW,323,9.0,9.0,34,0.00,,,0.00,Wunderground v.1.15,2013-06-17 00:20:00,
2013-06-16 19:25:00,82.7,52.3,29.86,NW,323,4.0,9.0,35,0.00,,,0.00,Wunderground v.1.15,2013-06-17 00:25:00,
2013-06-16 19:30:00,82.8,53.9,29.86,NW,323,0.0,3.0,37,0.00,,,0.00,Wunderground v.1.15,2013-06-17 00:30:00,
2013-06-16 19:35:00,82.7,53.0,29.85,NW,323,0.0,3.0,36,0.00,,,0.00,Wunderground v.1.15,2013-06-17 00:35:00,
2013-06-16 19:40:00,82.6,55.8,29.84,NW,323,0.0,0.0,40,0.00,,,0.00,Wunderground v.1.15,2013-06-17 00:40:00,
2013-06-16 19:45:00,82.4,55.7,29.85,NW,323,0.0,0.0,40,0.00,,,0.00,Wunderground v.1.15,2013-06-17 00:45:00,
2013-06-16 19:50:00,82.2,56.2,29.85,NW,323,0.0,0.0,41,0.00,,,0.00,Wunderground v.1.15,2013-06-17 00:50:00,
2013-06-16 19:55:00,82.1,56.7,29.84,NW,323,0.0,0.0,42,0.00,,,0.00,Wunderground v.1.15,2013-06-17 00:55:00,
2013-06-16 20:00:00,81.9,56.6,29.85,NW,323,0.0,0.0,42,0.00,,,0.00,Wunderground v.1.15,2013-06-17 01:00:00,
2013-06-16 20:05:00,81.6,58.2,29.84,NW,323,0.0,0.0,45,0.00,,,0.00,Wunderground v.1.15,2013-06-17 01:05:00,
2013-06-16 20:10:00,81.2,57.2,29.84,NW,323,0.0,0.0,44,0.00,,,0.00,Wunderground v.1.15,2013-06-17 01:10:00,
2013-06-16 20:15:00,80.6,56.0,29.84,NW,323,0.0,0.0,43,0.00,,,0.00,Wunderground v.1.15,2013-06-17 01:15:00,
2013-06-16 20:20:00,80.1,56.2,29.84,NW,323,0.0,0.0,44,0.00,,,0.00,Wunderground v.1.15,2013-06-17 01:20:00,
2013-06-16 20:25:00,79.7,54.6,29.84,NW,323,0.0,0.0,42,0.00,,,0.00,Wunderground v.1.15,2013-06-17 01:25:00,
2013-06-16 20:30:00,79.3,55.5,29.84,NW,323,0.0,0.0,44,0.00,,,0.00,Wunderground v.1.15,2013-06-17 01:30:00,
2013-06-16 20:35:00,78.9,55.1,29.85,NW,323,0.0,0.0,44,0.00,,,0.00,Wunderground v.1.15,2013-06-17 01:35:00,
2013-06-16 20:40:00,78.6,55.5,29.84,NW,323,0.0,0.0,45,0.00,,,0.00,Wunderground v.1.15,2013-06-17 01:40:00,
2013-06-16 20:45:00,78.0,56.1,29.84,NW,323,0.0,0.0,47,0.00,,,0.00,Wunderground v.1.15,2013-06-17 01:45:00,
2013-06-16 20:50:00,77.7,56.4,29.85,NW,323,0.0,0.0,48,0.00,,,0.00,Wunderground v.1.15,2013-06-17 01:50:00,
2013-06-16 20:55:00,77.5,53.9,29.85,NW,323,0.0,0.0,44,0.00,,,0.00,Wunderground v.1.15,2013-06-17 01:55:00,
2013-06-16 21:00:00,77.7,52.8,29.85,NW,323,0.0,0.0,42,0.00,,,0.00,Wunderground v.1.15,2013-06-17 02:00:00,
2013-06-16 21:05:00,78.0,53.7,29.86,NW,323,0.0,0.0,43,0.00,,,0.00,Wunderground v.1.15,2013-06-17 02:05:00,
2013-06-16 21:10:00,78.0,54.9,29.86,NW,323,0.0,0.0,45,0.00,,,0.00,Wunderground v.1.15,2013-06-17 02:10:00,
2013-06-16 21:15:00,77.7,54.0,29.86,NW,323,0.0,0.0,44,0.00,,,0.00,Wunderground v.1.15,2013-06-17 02:15:00,
2013-06-16 21:20:00,77.5,57.4,29.87,NW,323,0.0,0.0,50,0.00,,,0.00,Wunderground v.1.15,2013-06-17 02:20:00,
2013-06-16 21:25:00,77.0,59.6,29.87,NW,323,0.0,0.0,55,0.00,,,0.00,Wunderground v.1.15,2013-06-17 02:25:00,
2013-06-16 21:30:00,76.2,59.9,29.87,NW,323,0.0,0.0,57,0.00,,,0.00,Wunderground v.1.15,2013-06-17 02:30:00,
2013-06-16 21:35:00,75.7,59.9,29.87,NW,323,0.0,0.0,58,0.00,,,0.00,Wunderground v.1.15,2013-06-17 02:35:00,
2013-06-16 21:40:00,75.1,59.8,29.87,NW,323,0.0,0.0,59,0.00,,,0.00,Wunderground v.1.15,2013-06-17 02:40:00,
2013-06-16 21:45:00,74.5,58.3,29.87,NW,323,0.0,0.0,57,0.00,,,0.00,Wunderground v.1.15,2013-06-17 02:45:00,
2013-06-16 21:50:00,74.1,57.9,29.87,NW,323,0.0,0.0,57,0.00,,,0.00,Wunderground v.1.15,2013-06-17 02:50:00,
2013-06-16 21:55:00,73.7,58.0,29.87,NW,323,0.0,0.0,58,0.00,,,0.00,Wunderground v.1.15,2013-06-17 02:55:00,
2013-06-16 22:00:00,73.4,58.2,29.87,NW,323,0.0,0.0,59,0.00,,,0.00,Wunderground v.1.15,2013-06-17 03:00:00,
2013-06-16 22:05:00,72.9,58.7,29.87,NW,323,0.0,0.0,61,0.00,,,0.00,Wunderground v.1.15,2013-06-17 03:05:00,
2013-06-16 22:10:00,72.6,58.4,29.87,NW,323,0.0,0.0,61,0.00,,,0.00,Wunderground v.1.15,2013-06-17 03:10:00,
2013-06-16 22:15:00,72.4,56.8,29.87,NW,323,0.0,0.0,58,0.00,,,0.00,Wunderground v.1.15,2013-06-17 03:15:00,
2013-06-16 22:20:00,72.4,57.7,29.86,NW,323,0.0,0.0,60,0.00,,,0.00,Wunderground v.1.15,2013-06-17 03:20:00,
2013-06-16 22:25:00,72.3,57.6,29.86,NW,323,0.0,0.0,60,0.00,,,0.00,Wunderground v.1.15,2013-06-17 03:25:00,
2013-06-16 22:30:00,72.0,57.8,29.86,NW,323,0.0,0.0,61,0.00,,,0.00,Wunderground v.1.15,2013-06-17 03:30:00,
2013-06-16 22:35:00,71.8,58.1,29.86,NW,323,0.0,0.0,62,0.00,,,0.00,Wunderground v.1.15,2013-06-17 03:35:00,
2013-06-16 22:39:00,71.7,57.5,29.86,NW,323,0.0,0.0,61,0.00,,,0.00,Wunderground v.1.15,2013-06-17 03:39:00,
2013-06-16 22:44:00,71.6,57.4,29.86,NW,323,0.0,0.0,61,0.00,,,0.00,Wunderground v.1.15,2013-06-17 03:44:00,
2013-06-16 22:49:00,71.5,56.9,29.87,NW,323,0.0,0.0,60,0.00,,,0.00,Wunderground v.1.15,2013-06-17 03:49:00,
2013-06-16 22:54:00,71.3,58.9,29.87,NW,323,0.0,0.0,65,0.00,,,0.00,Wunderground v.1.15,2013-06-17 03:54:00,
2013-06-16 22:59:00,71.0,60.3,29.87,NW,323,0.0,0.0,69,0.00,,,0.00,Wunderground v.1.15,2013-06-17 03:59:00,
2013-06-16 23:01:00,70.9,59.8,29.87,NW,323,0.0,0.0,68,0.00,,,0.00,Wunderground v.1.15,2013-06-17 04:01:00,
2013-06-16 23:06:00,70.6,59.5,29.88,NW,323,0.0,0.0,68,0.00,,,0.00,Wunderground v.1.15,2013-06-17 04:06:00,
2013-06-16 23:11:00,70.2,60.0,29.87,NW,323,0.0,0.0,70,0.00,,,0.00,Wunderground v.1.15,2013-06-17 04:11:00,
2013-06-16 23:16:00,69.9,60.1,29.88,NW,323,0.0,0.0,71,0.00,,,0.00,Wunderground v.1.15,2013-06-17 04:16:00,
2013-06-16 23:21:00,69.5,60.1,29.87,NW,323,0.0,0.0,72,0.00,,,0.00,Wunderground v.1.15,2013-06-17 04:21:00,
2013-06-16 23:26:00,69.2,59.8,29.88,NW,323,0.0,0.0,72,0.00,,,0.00,Wunderground v.1.15,2013-06-17 04:26:00,
2013-06-16 23:31:00,69.0,59.2,29.88,NW,323,0.0,0.0,71,0.00,,,0.00,Wunderground v.1.15,2013-06-17 04:31:00,
2013-06-16 23:36:00,68.9,58.7,29.88,NW,323,0.0,0.0,70,0.00,,,0.00,Wunderground v.1.15,2013-06-17 04:36:00,
2013-06-16 23:41:00,68.8,58.2,29.88,NW,323,0.0,0.0,69,0.00,,,0.00,Wunderground v.1.15,2013-06-17 04:41:00,
2013-06-16 23:46:00,68.8,59.0,29.88,NW,323,0.0,0.0,71,0.00,,,0.00,Wunderground v.1.15,2013-06-17 04:46:00,
2013-06-16 23:51:00,68.8,59.0,29.88,NW,323,0.0,0.0,71,0.00,,,0.00,Wunderground v.1.15,2013-06-17 04:51:00,
2013-06-16 23:56:00,68.8,59.0,29.88,NW,323,0.0,0.0,71,0.00,,,0.00,Wunderground v.1.15,2013-06-17 04:56:00,